User: anonymous   Login
Location: Bílinka
(49.3579°N, 14.3767°E)
Time: 13:10:25
(UTC+00:00)
Language:

NOAA 16 DEB - Orbit

View from above orbital plane
View from above orbital plane
View from above satellite
View from above satellite

Ground track
Ground track

The orbit data is extracted from the following two-line orbital elements,

1 41400U 00055KD  24053.46711166  .00004304  00000-0  19265-2 0  9991
2 41400  98.7394 138.6816 0021484 206.0997 153.9100 14.22967676411630
Epoch (UTC): 22 February 2024 11:12:38
Eccentricity: 0.0021484
inclination: 98.7394°
perigee height: 800 km
apogee height: 831 km
right ascension of ascending node: 138.6816°
argument of perigee: 206.0997°
revolutions per day: 14.22967676
mean anomaly at epoch: 153.9100°
orbit number at epoch: 41163

The dashed part of the orbit path shows where the satellite is in the earth's shadow,  

DLR